Theta_e
337 338 339 340 341 342 343 343 343 343 343 344 345 345 345 346 347 347 346 342 341 341 341 340 340 342 345 348 349 350 350 350 350 350 350 350 350 350 349 347 346 347 348 350 351 352 352 352 352 352 351 351 351 351 351 351 350 349 348 348 347 346 346 346 346 345 345 346 346 347 346 345 344 344
336 336 337 339 339 340 341 340 340 340 341 342 343 343 343 343 344 345 345 343 342 342 342 341 340 340 341 343 346 348 348 349 349 350 349 350 350 350 350 349 349 348 349 350 351 352 352 351 350 350 350 349 349 350 350 350 350 349 348 348 347 347 347 348 347 345 344 344 345 346 346 344 343 344
334 335 336 337 338 339 340 340 339 339 340 341 342 342 342 341 341 342 343 345 342 340 342 341 340 342 342 342 343 344 345 346 347 348 348 348 349 349 349 350 350 349 349 350 351 351 350 350 350 349 349 348 348 349 349 349 349 348 348 348 348 348 348 348 348 346 344 343 345 346 346 345 344 343
335 336 336 336 337 337 338 338 338 338 338 340 341 341 340 339 340 340 342 344 342 339 339 339 339 342 344 344 343 342 341 342 344 345 346 347 348 349 349 349 350 350 349 350 350 350 350 349 351 350 349 348 348 349 349 349 349 349 349 349 348 349 348 348 348 347 344 343 344 345 345 345 344 343
336 337 337 337 337 336 336 337 337 337 337 339 340 340 340 340 341 341 341 342 342 340 339 340 341 342 344 344 343 342 342 342 344 346 345 346 347 349 350 349 349 349 349 350 350 350 350 350 351 350 350 349 349 349 349 350 349 349 349 349 348 349 348 348 348 347 345 344 343 343 344 344 343 344
333 335 336 337 337 337 337 337 338 338 338 339 340 339 340 340 341 341 341 341 343 342 341 341 342 343 344 344 342 343 344 344 345 346 346 346 347 348 349 349 349 349 349 349 349 350 351 351 351 351 350 350 349 349 350 350 350 349 349 348 348 349 348 348 348 347 345 344 343 343 343 343 343 344
330 332 333 334 335 336 337 337 337 338 338 338 339 338 339 340 340 341 342 341 342 342 342 342 343 343 343 343 342 343 345 346 346 346 346 345 345 346 346 348 348 349 349 349 349 349 350 350 350 349 349 349 349 348 349 350 350 349 348 348 348 349 349 349 348 347 346 344 343 343 344 343 343 344
330 330 330 331 331 330 330 331 332 334 336 337 338 338 338 338 339 340 340 341 341 342 342 342 342 342 342 342 342 342 344 345 345 346 345 345 345 345 346 347 347 348 348 349 349 349 349 349 349 349 349 349 349 349 349 349 349 349 348 348 348 348 349 348 348 347 346 344 343 343 343 343 344 345
332 332 332 331 330 329 328 326 325 325 328 331 334 335 336 337 337 338 339 340 340 341 341 341 341 341 342 342 342 342 342 343 343 344 344 344 344 344 346 346 346 347 347 347 348 348 348 348 348 349 349 349 348 348 348 349 349 349 349 349 349 349 348 348 348 347 346 345 344 343 343 343 344 345
332 332 332 331 330 330 329 327 323 320 319 323 327 331 333 335 336 337 338 338 338 339 340 340 340 340 340 340 340 341 341 342 342 342 342 342 343 343 345 345 346 346 347 346 346 347 346 345 346 345 346 346 346 346 346 348 349 350 350 349 350 349 349 348 348 348 347 346 345 344 344 344 344 345
332 332 331 331 330 330 328 326 322 319 319 322 324 326 329 332 335 336 337 336 336 337 337 337 338 338 337 337 338 338 339 340 341 341 341 341 342 342 343 344 344 344 344 345 345 346 346 346 345 345 345 345 345 345 346 347 348 349 349 349 350 350 349 348 348 348 347 347 347 346 345 344 344 344
331 330 330 329 329 328 327 325 322 320 321 324 327 328 329 331 333 334 334 335 336 336 335 334 334 335 334 335 335 335 335 336 338 338 338 338 339 340 341 341 342 342 342 343 343 344 345 345 346 346 347 347 347 347 347 347 347 347 348 349 349 350 350 348 348 348 348 347 348 347 347 346 346 345
330 329 329 329 328 327 326 325 325 324 322 323 327 331 333 333 333 333 334 334 335 335 335 334 333 333 333 333 333 333 333 332 334 334 333 333 334 335 336 338 339 341 342 343 343 343 344 345 346 346 347 346 346 347 347 346 346 346 347 349 349 350 350 349 348 348 348 348 347 347 347 347 347 346
329 329 329 328 328 328 326 326 326 325 323 323 326 330 333 334 334 334 334 334 335 335 335 334 333 334 334 334 333 333 333 333 333 333 333 333 333 333 334 334 334 336 339 342 343 343 343 344 344 345 344 344 345 345 345 346 345 345 345 347 348 348 349 349 349 348 347 347 347 347 347 347 348 348
329 329 328 329 328 327 326 326 326 325 324 325 326 328 330 332 333 333 334 334 334 334 334 334 333 334 334 334 334 334 334 334 334 335 335 335 335 336 336 336 333 333 335 336 338 340 340 341 342 343 343 343 343 344 344 344 344 343 343 344 345 346 347 348 348 348 347 347 347 347 347 347 347 347
329 328 328 327 326 326 326 327 327 326 325 325 327 328 328 329 331 332 333 334 334 334 334 334 333 333 333 333 333 333 333 334 334 335 336 336 336 336 336 336 334 334 335 335 335 334 336 337 337 339 340 341 341 341 342 342 343 343 343 343 343 344 346 347 348 347 347 347 347 348 348 348 347 348
326 326 326 326 325 326 327 327 327 326 326 326 327 328 329 329 330 330 331 332 332 332 332 332 332 332 332 332 331 331 331 332 332 333 335 335 336 336 336 335 334 333 335 336 336 333 332 333 333 333 335 336 338 338 338 339 340 341 341 342 342 342 343 346 348 348 348 347 347 347 348 347 348 348
327 327 327 327 327 327 327 327 326 326 326 326 327 328 328 329 329 330 331 331 331 331 331 332 331 331 331 331 330 329 330 331 331 332 333 333 333 333 334 336 336 335 335 336 337 335 332 331 333 333 332 332 334 335 336 337 338 339 339 341 341 341 342 344 346 348 349 348 348 347 347 347 347 347
329 328 328 328 328 328 327 327 327 326 327 327 327 328 328 328 329 329 330 331 331 332 332 332 332 332 331 331 330 330 330 330 331 331 331 332 331 331 333 334 335 335 335 336 337 338 335 333 335 335 333 332 333 334 335 335 336 337 338 339 340 341 341 341 342 343 344 345 346 346 346 346 346 346
329 329 329 329 329 329 328 327 327 327 327 328 328 328 328 328 328 329 330 331 331 331 331 332 332 332 332 332 332 331 331 330 330 330 331 331 331 332 334 334 333 333 333 333 334 336 336 335 335 334 332 332 334 334 334 334 335 336 337 338 338 339 339 339 339 341 341 342 343 343 344 344 345 346
329 329 329 329 328 329 328 328 327 327 328 329 329 328 328 328 328 329 329 330 330 331 331 331 331 331 331 331 331 331 331 331 331 331 331 330 330 331 333 333 331 330 330 330 332 335 335 334 334 335 334 334 335 335 334 335 335 336 337 338 339 339 339 339 339 340 341 342 343 343 343 343 344 345
327 327 327 327 327 327 327 327 327 327 328 328 328 328 328 328 327 327 328 328 328 329 329 329 329 329 329 330 331 331 331 331 331 332 332 331 331 332 333 332 331 331 330 330 331 334 334 332 333 334 334 334 335 334 335 335 335 336 337 336 336 335 336 336 336 337 339 342 343 344 344 344 344 345
324 325 325 325 325 325 325 325 326 326 326 326 327 326 327 326 326 326 326 327 327 327 327 327 327 327 327 327 327 329 329 330 330 331 331 331 331 332 332 331 331 331 330 328 330 334 335 334 334 334 334 334 334 333 334 334 333 333 333 333 332 331 330 331 331 332 336 340 342 342 343 343 344 344
323 323 323 323 324 324 324 324 324 324 324 324 324 325 325 325 325 325 325 325 326 325 325 325 326 326 326 325 325 326 326 327 327 328 329 329 330 331 331 331 331 330 329 326 327 330 331 331 333 333 334 336 336 334 333 332 330 330 330 330 330 330 331 333 334 337 339 342 342 342 342 342 343 344
323 323 322 323 323 323 323 323 323 323 323 323 323 323 323 324 323 323 323 323 323 323 323 324 324 324 324 324 324 324 325 324 324 324 324 324 325 326 328 329 329 329 329 327 326 326 327 329 332 333 335 336 337 336 335 333 332 331 331 331 332 334 336 337 337 339 341 342 342 342 343 342 343 343
322 322 322 322 322 323 323 323 323 323 323 323 322 323 323 323 322 322 322 322 321 321 322 322 322 323 322 322 322 322 323 323 323 322 322 323 323 323 324 324 325 326 327 328 326 326 328 330 333 335 336 337 337 337 336 335 334 333 333 333 334 336 339 339 338 336 336 336 339 341 341 341 341 342
322 321 321 321 322 322 323 322 322 323 322 322 322 322 323 323 323 322 322 322 322 322 322 322 322 323 322 322 322 321 321 322 323 323 323 323 323 323 323 323 323 323 324 327 327 326 328 329 331 334 337 337 337 338 337 337 336 335 334 333 334 336 338 338 337 335 334 335 337 339 340 340 339 340
321 321 321 321 322 322 322 322 323 323 323 323 323 323 322 322 322 322 321 321 321 321 321 321 321 322 322 322 322 322 322 322 322 322 322 323 323 323 323 323 323 322 323 325 327 327 327 328 330 332 334 335 337 338 338 338 337 337 336 336 335 336 337 338 337 336 336 337 338 338 338 338 338 339
321 322 322 322 322 322 322 323 323 324 324 324 324 324 323 322 322 321 321 321 320 320 320 320 320 321 321 321 322 322 322 322 322 322 322 322 322 322 323 323 322 321 322 324 325 326 327 327 328 330 330 331 335 337 338 338 337 337 337 337 336 337 337 338 338 337 337 337 337 338 338 337 337 338
321 322 322 322 321 321 322 322 322 322 323 324 324 323 323 322 322 321 321 321 320 320 320 321 321 322 322 321 322 323 324 324 324 324 323 323 323 323 323 324 323 322 322 323 324 325 326 326 326 328 329 331 333 336 337 338 338 338 337 337 337 337 337 337 337 336 336 337 337 337 338 338 338 338
322 322 322 321 321 321 321 320 321 321 322 322 322 322 322 322 321 321 321 321 321 322 322 322 322 323 322 322 323 324 324 325 325 326 325 325 325 325 325 325 325 324 323 323 324 326 327 327 327 327 328 331 333 333 334 335 336 336 335 335 335 336 335 336 336 336 335 336 337 338 338 338 338 338
323 323 322 321 320 320 320 320 320 320 321 321 321 321 321 321 322 322 322 322 323 323 323 323 323 323 322 322 323 323 324 325 326 327 327 326 326 325 325 326 327 326 326 327 327 328 328 328 328 327 328 331 333 332 331 330 331 331 331 331 332 334 335 335 335 334 334 335 337 338 339 339 340 340
322 322 321 320 319 319 319 319 320 320 321 321 321 322 322 322 323 323 323 323 324 324 324 323 324 323 323 323 323 324 325 327 327 328 328 328 328 327 327 327 327 328 329 329 328 329 329 329 329 328 328 329 330 330 329 329 329 329 329 330 332 333 334 334 335 335 335 336 338 339 339 339 340 340
319 319 319 319 319 319 319 319 319 320 321 322 322 322 323 323 323 324 324 324 325 325 325 324 325 325 325 325 326 326 327 328 328 328 328 328 328 328 328 328 328 328 328 328 329 329 330 330 330 329 328 329 329 330 330 331 331 329 330 334 336 336 335 335 336 337 338 338 339 339 339 339 339 339
317 318 318 318 318 319 319 319 319 320 321 321 322 322 323 323 324 324 324 325 325 325 326 326 326 326 326 327 327 328 328 328 329 329 329 328 328 329 329 329 329 329 329 330 330 330 330 330 331 331 330 330 331 332 333 332 330 329 331 334 337 337 337 337 339 339 339 339 339 339 340 339 339 339
317 317 317 317 318 318 318 318 319 320 321 321 321 322 322 322 323 324 324 325 325 325 326 326 326 326 326 327 327 328 328 329 329 329 329 329 329 329 329 330 330 330 330 330 330 330 331 331 331 332 332 332 332 333 332 330 329 329 332 334 335 335 336 337 338 339 339 339 339 339 340 340 339 339
317 317 316 317 318 318 318 318 319 319 321 321 321 322 322 322 322 323 324 324 325 325 326 326 326 326 326 326 327 327 328 328 329 329 329 329 329 329 329 330 330 330 330 331 330 330 331 332 331 332 332 333 332 332 332 332 331 331 333 334 334 335 335 335 336 337 337 337 337 338 339 339 339 340
316 316 316 316 317 317 318 318 319 319 320 321 321 322 322 322 322 323 323 324 324 325 325 325 326 326 326 326 327 327 327 328 328 328 329 329 329 329 329 329 329 330 330 330 330 331 331 332 332 332 333 333 333 333 333 333 333 332 333 333 334 335 335 335 337 337 337 338 337 337 338 339 339 340
317 316 316 316 317 317 318 318 319 319 320 320 321 321 321 322 322 322 322 323 324 325 326 326 326 327 327 327 327 327 327 327 328 328 328 328 328 328 329 329 329 330 330 330 331 330 331 331 332 332 333 333 333 333 333 334 334 334 334 334 334 335 335 336 337 338 338 338 338 339 339 339 339 340
318 318 318 318 318 319 319 319 319 320 321 321 321 321 322 322 323 323 325 325 326 327 327 328 328 328 328 329 328 328 328 328 328 328 328 329 329 328 329 329 329 329 330 330 330 330 331 331 331 332 332 333 333 333 333 334 335 335 335 335 335 336 336 337 337 338 338 338 338 339 340 340 340 340
322 321 321 321 321 322 322 322 322 322 322 322 323 323 324 324 325 327 327 327 327 327 328 329 330 329 329 329 329 329 329 329 329 328 329 329 329 329 329 329 329 329 330 330 329 329 329 329 330 331 332 333 333 333 334 334 335 335 335 335 334 335 336 336 336 337 338 338 338 339 340 340 341 341
324 324 324 324 324 324 324 324 324 324 324 325 325 325 326 326 326 327 327 327 327 328 328 329 330 330 329 329 328 328 328 328 329 330 329 329 330 330 329 329 329 330 330 329 329 328 328 329 330 331 332 332 332 333 333 333 334 335 335 334 333 333 334 335 335 336 337 337 337 338 339 339 340 340
325 326 326 326 326 326 326 326 326 326 327 327 327 327 327 326 325 325 326 326 326 326 326 328 328 329 329 329 328 328 328 328 328 329 330 330 330 330 330 330 329 329 330 329 329 329 329 329 330 331 331 332 332 333 333 334 334 335 334 333 333 333 333 335 336 336 336 336 336 336 337 337 337 338
327 327 328 328 328 328 328 327 327 328 327 327 327 328 327 325 324 324 325 325 324 324 325 326 327 328 329 329 329 329 328 327 327 328 329 330 330 330 330 330 330 330 330 330 330 330 330 330 331 331 331 332 332 333 334 334 334 334 333 333 332 332 333 334 335 335 335 335 335 335 334 335 335 336
328 328 328 328 328 329 329 328 328 328 327 326 327 327 325 324 324 324 324 324 324 324 325 325 326 326 327 328 328 329 329 328 327 326 327 328 330 330 331 330 330 330 330 330 330 330 330 330 331 331 331 332 333 333 334 334 334 333 332 330 330 331 331 332 333 334 335 335 333 332 332 333 334 334
Wind_Speed
13 13 13 14 14 14 15 15 13 12 12 11 12 14 14 15 17 18 19 19 18 15 14 14 13 12 12 13 13 13 14 14 14 15 16 18 20 22 23 25 25 26 26 26 26 26 25 25 24 24 24 25 25 25 25 26 27 27 26 26 26 26 25 25 25 25 26 26 25 25 24 24 23 23
14 13 13 13 13 14 14 15 15 15 13 12 12 13 13 15 18 20 22 23 21 18 16 14 14 13 12 14 15 15 16 15 14 15 16 17 19 20 21 23 24 25 26 27 27 27 26 26 25 25 25 25 25 25 25 26 27 27 26 26 25 25 25 25 25 25 25 24 24 24 24 23 23 23
15 14 13 13 13 13 13 13 14 14 14 13 13 13 14 16 18 20 24 27 24 19 17 16 15 16 15 14 16 17 17 17 16 16 17 18 18 18 20 21 23 24 25 27 28 29 28 27 26 25 25 25 25 24 24 25 25 26 25 24 24 24 24 25 25 25 24 24 24 24 23 22 22 23
13 13 13 14 13 14 14 14 14 14 14 13 13 14 14 15 15 16 20 27 26 19 17 18 17 16 15 15 15 17 17 17 18 18 18 18 18 18 18 19 20 22 23 25 26 27 27 26 25 25 25 25 24 24 24 24 24 24 23 23 23 23 23 24 24 24 24 24 23 23 23 22 23 23
15 15 15 15 15 15 15 15 14 14 14 14 13 13 14 14 13 13 15 20 23 19 16 18 17 14 15 16 15 15 16 15 16 16 16 16 16 17 18 18 19 20 21 23 24 24 24 24 25 25 25 25 24 24 24 23 23 23 22 22 21 22 22 23 23 23 23 24 24 23 22 22 23 23
17 17 17 18 18 17 17 17 17 16 15 15 15 15 15 15 13 12 11 13 17 17 14 16 18 17 18 18 15 14 16 15 15 15 15 15 15 15 16 18 19 19 20 21 22 23 24 25 26 26 25 25 25 25 25 24 24 24 23 22 21 21 22 22 23 23 23 24 24 23 22 22 23 23
14 16 17 17 18 18 18 19 19 19 19 19 19 18 18 18 16 15 14 13 13 14 13 13 15 15 16 17 15 15 15 15 15 16 16 16 16 16 16 17 18 18 19 20 21 22 24 25 26 27 26 26 26 26 26 25 25 25 25 24 23 22 22 22 22 23 23 24 25 24 23 23 23 24
13 14 14 15 16 18 19 20 21 21 21 21 21 21 21 20 20 19 19 17 16 15 15 14 13 12 13 14 14 14 15 15 16 17 17 17 17 18 18 18 18 18 18 20 21 23 24 25 26 26 26 26 26 26 26 26 26 26 26 25 25 24 23 22 22 23 23 24 25 25 25 24 24 24
16 16 16 17 19 21 22 22 22 22 23 23 22 22 21 21 21 21 21 20 19 19 19 19 18 17 16 15 14 14 15 17 18 18 18 17 18 18 19 19 19 19 18 19 20 21 23 24 24 25 26 26 26 27 27 27 26 26 26 26 26 25 24 23 22 22 23 24 25 26 26 25 25 25
17 17 18 20 22 24 25 24 22 22 22 22 22 21 21 20 20 21 20 20 20 20 20 20 21 20 20 19 18 16 17 19 20 20 19 18 18 18 19 19 19 19 19 19 20 21 22 22 23 24 25 25 26 27 27 27 27 26 26 27 27 26 25 24 23 23 23 24 24 25 26 26 26 26
17 18 20 22 23 24 25 24 21 20 19 20 20 21 21 21 20 20 19 18 19 20 21 22 22 21 21 21 20 18 17 19 20 21 21 21 20 19 19 19 19 19 19 20 21 22 22 22 22 22 23 24 24 24 25 26 27 27 27 27 27 27 26 25 24 23 23 24 24 24 25 26 26 26
18 19 20 21 22 23 24 23 21 19 19 20 21 20 20 21 21 20 20 20 20 21 22 23 23 23 22 22 22 21 19 19 20 20 21 22 21 20 19 19 19 19 20 21 22 22 22 22 22 21 22 22 22 23 23 24 26 27 27 28 28 27 27 26 25 24 24 24 24 24 24 25 25 26
16 17 19 20 21 23 23 22 20 19 19 20 21 21 19 19 20 21 21 22 21 22 23 23 23 24 23 23 23 23 21 20 20 20 20 21 21 21 20 20 19 19 20 21 21 21 21 21 21 21 22 22 22 22 23 23 24 25 26 27 28 28 27 27 26 26 25 24 24 25 25 24 25 25
17 18 20 21 22 23 23 21 20 20 19 18 18 20 20 19 20 20 21 22 22 23 24 24 24 24 24 23 22 22 21 20 19 19 19 20 20 20 21 22 21 20 20 21 21 20 18 18 19 20 21 21 21 21 22 22 22 23 24 26 27 28 29 28 27 27 26 25 25 25 25 25 25 25
21 22 23 23 24 24 23 22 20 20 19 17 16 18 19 20 21 20 20 20 21 21 22 23 22 22 22 21 20 20 20 20 19 19 19 19 20 19 20 22 22 22 21 21 22 22 18 17 19 19 19 19 19 20 20 20 20 21 22 24 26 27 28 29 29 28 27 26 26 26 26 25 25 25
22 23 24 24 24 24 22 22 21 20 19 18 17 18 19 21 22 21 19 19 20 20 21 22 22 22 22 21 20 19 18 18 18 18 19 19 20 21 22 24 23 22 22 23 24 25 23 21 22 21 20 19 19 19 19 19 19 19 20 22 24 25 26 27 28 28 28 27 27 27 27 26 25 25
21 22 23 24 24 23 22 22 21 21 20 19 18 18 19 20 21 22 22 21 22 22 23 24 24 23 22 22 21 19 18 19 19 19 19 19 19 21 22 24 24 23 24 24 26 27 27 25 25 26 24 22 21 21 21 20 21 20 20 20 21 22 23 24 25 26 27 27 28 28 28 27 26 26
20 20 21 23 23 23 22 21 20 20 20 20 20 19 20 20 21 21 22 23 23 23 23 24 25 24 24 23 23 21 20 20 21 21 21 20 20 21 22 23 24 25 26 26 27 29 29 26 26 27 25 23 23 23 23 22 22 22 22 21 21 21 22 22 23 24 25 27 28 29 29 28 27 27
19 20 20 21 22 21 21 21 20 20 20 21 21 20 20 20 20 20 20 21 22 22 23 24 25 25 26 25 24 23 22 22 22 22 23 22 22 23 24 24 25 25 25 25 26 29 29 26 26 27 24 23 23 23 23 23 23 23 23 22 22 22 22 22 23 23 25 27 28 30 30 30 30 29
18 19 19 19 19 19 19 19 19 19 20 20 20 20 20 21 20 20 20 20 22 22 23 24 25 25 26 25 25 25 24 24 24 23 24 25 24 25 26 26 26 24 23 22 24 28 28 26 28 29 26 24 24 22 22 22 22 22 22 22 22 22 22 23 23 23 23 24 26 28 30 31 32 31
18 18 19 19 19 19 19 19 18 19 19 20 20 20 21 22 22 22 21 22 23 23 24 24 25 25 25 26 26 25 25 25 24 25 26 26 26 26 27 28 27 25 24 23 23 26 27 26 27 28 27 26 26 25 22 20 20 20 20 19 19 19 20 20 20 21 21 22 23 24 26 28 31 31
19 20 20 20 20 21 20 20 20 19 20 21 21 22 24 25 26 26 25 26 27 27 27 27 27 27 27 27 27 27 27 26 25 27 28 28 27 29 29 29 29 28 27 25 23 25 27 26 26 27 27 27 28 26 22 19 18 18 18 18 18 18 18 18 19 19 20 20 21 22 22 24 27 30
20 21 22 22 22 23 23 23 22 22 23 24 25 26 27 28 29 28 27 29 30 30 31 31 31 30 29 29 29 29 29 28 27 29 29 29 30 31 32 31 30 31 31 26 22 24 25 23 23 24 25 26 27 25 23 22 20 20 20 20 20 19 18 18 19 19 20 20 20 21 21 22 24 27
22 22 23 23 23 23 23 24 25 26 26 27 28 28 28 30 31 30 30 31 32 32 34 34 33 33 32 31 30 30 30 30 29 30 30 30 32 33 34 33 33 34 33 27 24 26 27 24 23 23 23 24 25 25 24 23 21 20 20 20 20 19 17 16 16 17 17 17 17 18 19 21 23 26
25 25 25 24 24 24 24 24 25 27 28 28 28 29 31 32 32 32 33 34 34 36 37 38 38 38 37 36 35 34 34 33 33 33 33 34 34 35 36 36 36 37 35 29 26 28 29 26 25 24 24 25 26 26 26 24 23 21 20 20 20 18 17 16 16 16 16 16 16 16 16 18 20 23
29 29 29 29 28 28 27 27 27 28 28 28 29 31 32 32 32 32 34 35 36 38 39 39 40 41 41 40 39 38 38 37 36 37 37 36 35 35 35 35 36 37 34 29 25 26 27 27 24 23 24 25 25 26 27 27 26 23 22 22 22 20 19 19 19 18 17 17 16 16 15 16 18 20
32 33 33 33 33 33 33 32 31 31 30 31 32 32 32 32 32 33 34 36 37 38 38 38 39 40 40 40 39 38 38 37 36 37 37 36 35 35 34 33 33 34 32 28 25 25 27 28 26 23 23 23 24 25 26 27 26 24 23 23 23 23 22 22 22 21 20 18 17 16 16 17 17 19
33 34 34 35 36 36 35 34 32 32 31 31 32 32 32 32 33 34 35 36 35 35 35 35 36 34 32 32 32 33 33 33 34 35 36 37 37 36 34 33 32 32 30 28 27 26 27 29 29 26 24 23 25 26 27 27 26 25 24 24 24 24 23 23 23 22 20 19 18 17 17 17 17 19
33 34 34 35 36 35 33 31 31 30 30 29 29 29 30 31 33 33 31 30 28 28 28 28 27 24 22 21 22 23 23 24 26 29 32 34 34 33 32 31 31 31 30 29 28 27 28 30 30 29 27 26 26 27 26 26 26 25 24 25 25 24 24 24 24 23 21 20 20 19 19 18 18 18
34 34 34 34 33 30 28 26 26 26 25 24 24 24 23 24 23 22 20 18 19 20 20 21 20 19 18 18 18 17 18 20 21 22 23 24 24 24 24 25 27 28 28 29 28 27 28 29 30 30 29 27 27 27 25 25 25 24 23 24 24 24 23 22 22 21 21 21 21 20 20 19 18 18
34 33 33 31 28 25 23 21 21 21 18 16 15 14 12 12 12 11 11 12 14 16 17 18 19 19 18 19 18 17 18 19 18 17 18 19 19 19 19 21 23 23 24 25 26 26 27 28 29 30 30 28 27 26 24 24 25 25 24 23 24 24 23 21 21 21 21 21 21 22 21 20 19 18
35 33 31 28 24 21 19 19 18 17 15 13 11 9 7 7 7 7 9 10 12 14 16 18 20 19 17 18 19 18 19 19 17 16 18 19 19 18 19 21 22 21 21 22 22 23 24 25 27 29 30 29 27 27 25 25 26 26 25 23 23 24 23 22 22 21 21 21 22 22 22 22 20 19
34 32 28 25 21 19 19 18 16 14 13 11 10 9 9 9 8 9 10 11 12 14 16 17 17 16 15 17 18 18 19 19 18 17 17 17 18 18 19 21 22 21 22 22 21 21 21 21 23 26 28 29 27 26 26 27 26 25 25 24 24 24 24 23 22 20 20 21 21 21 22 22 21 20
27 25 23 21 19 18 18 17 15 13 11 11 10 10 10 11 11 11 12 12 13 14 17 18 17 17 17 18 19 19 20 20 19 18 16 15 16 18 19 21 22 23 23 24 23 21 20 19 19 20 23 25 24 24 25 26 25 24 25 24 23 23 23 22 21 20 20 20 21 21 23 23 22 21
21 20 20 19 17 17 17 15 13 11 10 11 12 13 13 12 12 13 14 15 15 16 18 20 20 21 21 21 20 20 19 18 18 19 17 16 16 18 19 21 22 23 23 24 23 21 19 17 17 18 20 21 22 23 25 25 23 23 24 25 24 23 22 21 20 20 20 20 21 22 23 24 23 22
21 20 19 19 17 17 16 14 12 10 9 11 14 15 15 14 13 14 16 17 18 19 20 21 22 22 22 21 20 19 19 18 18 18 18 17 18 18 20 22 23 23 23 23 22 21 19 18 17 18 20 21 21 23 23 22 22 23 24 24 24 22 21 20 19 19 19 19 20 22 23 24 23 21
22 20 19 17 16 16 15 14 12 11 11 12 14 15 16 15 15 16 17 18 19 20 20 21 22 22 22 21 20 20 20 20 20 19 19 19 19 20 21 22 23 24 24 24 22 20 20 19 19 20 21 21 22 22 22 21 22 22 22 23 22 21 21 21 20 19 19 19 20 21 22 23 22 20
21 19 17 15 14 14 13 12 12 12 11 12 13 15 16 16 17 18 19 20 20 20 21 23 24 24 24 24 23 23 22 22 22 22 22 21 21 22 23 23 23 23 23 23 21 20 21 21 20 20 21 22 22 21 20 20 22 22 21 21 21 20 20 21 21 20 19 20 21 20 20 21 21 20
19 16 15 13 11 11 10 10 11 11 12 12 13 14 16 17 18 19 20 20 20 20 21 22 22 21 21 21 21 21 22 22 23 23 22 22 23 23 23 24 23 22 22 21 20 19 20 21 21 20 20 18 17 17 17 19 21 21 20 20 20 19 18 17 17 17 17 18 19 19 19 20 20 19
16 14 12 11 9 9 9 10 11 11 12 12 13 14 16 17 17 18 18 19 19 19 19 18 17 16 17 17 18 19 19 21 22 23 23 23 23 24 24 24 23 22 21 21 20 20 20 20 20 19 18 17 16 16 17 18 19 19 20 21 21 19 18 16 15 15 15 15 16 17 17 17 17 17
17 14 12 10 10 9 9 10 10 10 11 12 12 13 13 13 13 14 15 16 17 17 18 17 16 15 16 16 17 18 19 19 20 21 22 21 22 22 22 22 22 21 21 21 22 22 21 19 17 16 15 15 16 16 16 17 18 19 20 21 20 19 19 18 17 16 16 15 15 15 15 15 15 17
17 14 12 11 11 10 10 11 10 10 11 11 11 10 9 8 9 12 14 14 14 15 17 17 17 16 16 16 17 17 19 19 20 19 18 19 20 20 21 21 21 21 21 22 23 21 18 16 15 15 15 16 16 16 16 17 18 19 19 19 19 19 18 17 17 16 16 17 16 16 15 15 15 17
17 15 13 13 12 11 10 10 10 10 11 11 10 10 10 10 11 12 13 15 17 18 18 18 18 18 18 19 19 19 19 19 19 19 17 16 17 19 20 20 21 21 21 21 21 19 16 15 15 15 15 15 15 14 14 15 16 17 17 16 16 16 16 15 16 16 16 16 15 15 16 16 15 15
17 15 14 13 13 12 11 11 10 10 10 10 10 11 11 13 13 14 16 18 20 21 21 20 20 19 20 20 21 21 21 20 19 18 17 16 16 18 20 19 19 19 20 19 18 17 16 15 15 15 14 14 14 13 13 13 14 15 15 14 13 13 14 14 14 13 13 13 13 12 13 14 14 14
17 14 13 12 11 10 9 9 9 9 9 10 11 13 13 13 15 16 17 19 20 22 22 22 22 21 20 20 21 22 22 21 20 18 18 17 16 17 19 19 18 18 19 19 17 17 16 15 15 15 14 14 14 13 11 12 13 14 14 14 12 12 12 11 10 11 11 8 7 6 6 7 10 11
Wind_Direction
264 263 260 260 259 256 255 257 265 274 279 282 285 286 289 289 287 289 293 298 303 305 304 301 296 292 282 275 271 269 269 271 274 275 272 269 266 262 260 259 257 257 256 253 252 254 257 261 265 267 267 265 263 262 262 263 263 262 262 263 263 263 261 261 260 260 260 260 258 256 257 258 257 255
271 272 270 269 267 265 262 259 260 266 270 275 279 284 289 290 287 287 288 292 297 299 298 300 303 302 294 284 279 275 272 272 271 273 274 273 272 267 262 259 257 256 255 253 253 255 258 262 265 268 270 268 265 263 262 262 262 262 262 263 264 263 261 259 259 260 260 260 258 256 256 255 254 253
272 272 270 270 267 265 266 265 264 263 264 268 271 275 284 289 291 292 288 285 288 294 295 297 301 301 297 290 283 279 277 276 273 272 274 276 276 274 266 259 256 256 256 256 257 259 260 261 263 267 270 269 266 264 264 263 262 261 262 263 264 264 262 259 257 258 259 259 258 257 256 254 253 253
269 270 269 268 267 267 267 267 267 265 263 264 266 272 284 291 293 297 292 284 285 290 293 296 298 298 297 292 285 281 280 281 280 277 277 278 278 275 269 262 257 256 256 258 259 259 259 259 262 266 268 268 266 265 266 267 266 264 263 264 264 264 264 262 259 257 257 257 257 257 256 254 253 252
272 273 272 270 269 270 269 269 268 266 264 261 262 270 280 285 287 296 299 292 290 289 285 289 292 289 290 289 285 286 286 285 284 281 278 279 279 276 272 268 262 258 257 257 257 257 257 259 263 264 264 264 265 265 267 268 269 268 267 266 266 264 263 262 261 258 255 254 255 255 255 254 252 250
279 277 274 272 272 273 273 273 271 270 268 266 266 267 272 277 279 286 297 300 298 293 282 280 281 278 280 280 277 281 286 288 287 283 280 278 277 276 275 273 268 263 260 259 259 258 258 260 262 263 262 261 262 264 265 266 267 268 268 268 267 266 264 262 260 257 254 252 252 253 252 252 251 249
288 284 280 278 279 280 280 279 277 274 271 271 271 268 267 272 275 277 285 292 298 298 293 286 284 283 281 277 271 271 277 282 284 282 281 280 279 278 278 277 275 270 265 263 262 262 261 261 262 262 262 260 261 262 262 263 264 265 267 267 267 266 265 263 260 257 254 251 250 251 251 250 250 249
304 303 301 298 297 295 292 289 284 279 274 272 273 271 268 270 274 277 281 285 288 290 289 286 283 284 284 282 279 277 274 273 275 275 274 275 277 276 275 277 278 275 271 266 264 262 262 263 263 262 261 260 259 258 259 261 263 264 264 265 265 265 264 262 260 257 255 252 250 249 249 248 248 248
307 312 312 311 309 305 302 297 292 286 280 275 274 274 273 273 276 278 280 284 286 285 285 284 282 281 281 280 279 279 277 274 272 272 271 272 274 273 271 271 274 277 277 274 270 267 265 263 262 261 260 259 258 258 259 261 262 262 261 261 262 263 263 261 259 257 256 253 251 249 248 248 247 246
305 307 307 307 307 306 305 302 298 292 284 277 274 274 275 276 278 280 282 285 287 286 285 284 283 282 281 279 277 274 274 276 276 277 277 278 280 279 275 270 269 272 274 274 273 271 268 266 264 263 262 262 262 261 261 260 259 258 257 257 258 260 261 261 259 258 256 254 252 250 248 248 247 246
298 299 300 302 303 305 306 306 303 298 287 277 271 269 271 274 277 279 281 283 287 287 285 284 284 284 282 282 281 277 272 272 274 277 280 281 281 282 280 276 275 275 275 274 273 271 269 268 265 265 264 264 264 263 262 261 260 259 257 256 256 258 259 259 258 258 257 255 254 252 250 249 248 247
295 296 298 300 302 305 307 309 309 305 295 282 274 270 271 273 274 275 275 277 280 284 285 285 285 285 285 283 283 282 278 274 273 274 278 280 280 279 279 280 280 281 281 279 278 275 273 272 270 269 268 267 267 266 265 264 262 261 259 257 256 256 257 257 257 257 257 256 254 252 251 250 249 248
296 298 299 302 305 307 309 310 309 307 301 289 277 272 274 275 274 273 273 273 275 279 283 285 285 286 286 285 285 284 282 279 277 274 274 276 278 279 278 277 278 281 284 283 281 279 277 275 273 272 271 270 269 268 266 265 263 261 260 259 257 256 255 255 255 255 256 256 254 252 251 251 250 249
294 296 299 302 305 307 308 307 304 302 301 291 275 269 271 275 275 274 273 272 273 276 279 281 283 284 285 284 283 283 282 281 279 276 274 274 275 278 278 275 274 275 279 281 281 279 279 277 274 271 271 271 272 271 268 266 265 264 262 261 259 258 256 254 253 254 254 255 254 252 251 251 251 250
294 296 298 301 303 305 305 304 301 300 299 291 276 264 262 266 271 273 274 274 274 276 278 279 280 281 283 284 283 282 281 280 279 276 273 272 272 274 276 276 274 271 273 277 278 276 275 276 275 272 271 272 274 275 274 272 270 267 264 261 260 259 258 255 253 252 252 253 253 252 252 252 252 251
295 296 297 299 301 303 305 304 301 298 296 288 274 262 257 259 264 270 274 274 274 275 277 278 278 279 282 284 283 282 282 280 280 280 276 274 272 271 272 273 273 272 274 277 277 273 270 272 274 273 272 274 274 274 275 274 273 270 267 264 261 259 258 255 254 253 252 252 253 252 252 252 252 253
296 297 298 300 301 302 303 302 298 295 292 286 276 269 266 264 265 269 272 273 275 276 278 279 279 280 282 282 281 281 280 279 279 280 280 280 278 274 272 271 271 271 272 274 276 274 269 270 274 273 272 273 273 273 273 273 272 271 269 268 266 262 259 256 253 252 252 251 252 252 252 252 253 253
299 300 300 300 300 300 299 297 295 291 289 288 284 281 278 276 274 273 274 274 275 275 275 276 277 277 278 278 278 276 275 273 273 274 276 277 276 275 273 271 269 268 268 272 276 275 271 271 273 273 272 272 271 271 271 271 270 269 268 267 267 266 264 261 257 253 251 249 249 251 251 251 252 253
301 300 299 298 297 296 295 293 291 288 288 288 287 285 283 281 280 278 277 277 277 275 274 274 275 275 275 276 276 273 270 268 268 269 271 270 269 269 270 270 269 268 269 271 275 275 273 272 273 273 273 274 272 269 268 268 267 267 266 264 264 265 265 264 263 260 256 253 250 249 249 250 251 251
301 299 299 298 296 295 294 292 289 287 286 285 283 284 284 283 281 279 278 277 276 275 276 276 275 275 274 274 273 272 270 269 268 267 266 265 267 268 269 271 271 270 270 271 274 276 275 274 274 273 274 274 273 270 268 266 264 265 266 264 263 264 263 263 263 263 262 259 256 252 249 248 248 249
305 302 301 300 300 299 297 294 290 286 285 284 282 282 283 283 281 279 278 276 275 274 274 274 274 274 273 273 271 269 268 268 268 267 265 266 268 270 271 271 271 271 269 269 273 277 276 276 276 276 274 274 273 272 271 267 264 265 266 265 265 264 261 259 259 260 260 260 260 257 253 249 247 247
307 306 305 304 305 304 301 297 292 287 285 283 282 282 283 283 280 278 278 278 276 274 273 272 272 272 272 272 271 270 267 265 265 265 267 269 269 269 270 271 274 274 270 266 269 274 276 276 276 277 277 275 273 272 270 266 263 263 263 264 265 264 262 260 259 258 257 257 257 258 257 254 250 246
310 308 307 306 305 303 302 299 295 291 288 286 285 285 284 283 281 280 282 282 281 279 277 275 273 271 269 267 266 267 266 264 262 261 263 266 266 266 267 269 271 273 270 266 266 272 277 279 277 277 280 280 277 275 271 267 264 263 264 267 269 268 267 267 265 261 258 256 256 257 257 256 253 249
315 311 308 305 302 300 298 296 294 292 289 287 286 285 283 282 282 283 284 283 283 283 282 280 279 277 274 270 267 265 263 261 259 258 259 261 261 262 263 263 265 268 269 269 270 272 276 280 279 278 279 280 280 279 276 272 267 265 267 269 270 270 270 269 266 263 261 259 259 260 260 258 256 252
318 315 311 307 304 301 297 293 290 288 286 286 284 282 280 281 283 284 283 282 282 282 280 280 280 279 278 276 274 271 268 264 262 262 263 264 263 261 260 261 263 265 267 269 270 270 271 273 276 278 277 275 275 277 277 275 270 265 266 268 270 270 271 269 265 262 263 265 265 265 265 263 260 256
318 316 314 311 309 307 303 298 291 286 283 282 281 279 279 281 282 283 283 282 281 280 280 280 279 277 276 276 276 275 274 271 268 268 268 268 267 264 262 262 263 265 267 268 265 264 265 267 270 273 272 270 271 273 274 273 272 268 265 265 267 270 272 272 270 269 270 271 269 267 266 266 264 260
316 314 313 312 310 309 307 303 298 290 283 278 278 279 280 282 283 283 283 283 282 282 282 281 279 276 274 274 275 275 275 274 272 271 270 269 268 267 266 265 263 263 265 264 259 257 260 263 263 265 267 269 271 271 270 270 271 270 266 265 267 269 271 273 274 274 275 273 270 266 266 268 267 266
313 311 310 309 308 308 307 305 300 294 287 281 278 279 279 279 281 282 282 283 282 282 281 279 278 275 273 273 273 274 274 275 273 272 270 269 267 266 266 264 259 256 257 257 255 253 255 258 259 259 262 268 270 269 269 271 271 270 268 267 267 267 270 273 275 275 275 274 271 268 266 268 270 270
311 309 307 307 308 309 307 305 302 299 294 288 283 280 277 276 277 279 280 280 279 278 277 276 276 277 278 279 278 278 279 277 275 273 270 267 264 262 259 256 252 248 248 250 250 249 250 253 256 256 258 262 266 269 271 272 271 269 267 268 269 270 271 273 274 274 274 274 273 271 271 271 271 269
308 306 306 308 310 310 309 309 309 308 303 296 286 280 275 273 274 275 277 278 276 275 276 277 278 281 286 289 287 285 284 283 282 280 275 268 262 256 252 252 251 248 246 246 246 246 246 248 251 253 254 256 261 266 271 272 271 270 270 272 274 275 274 274 274 274 275 276 276 275 275 272 268 266
306 304 306 309 310 308 310 315 317 318 320 315 302 290 282 276 272 271 273 276 278 281 283 285 286 287 286 286 286 286 287 288 288 285 279 272 265 258 256 259 259 253 247 244 244 244 246 247 249 250 250 252 255 260 265 270 271 272 273 274 276 276 275 275 275 275 277 278 277 275 273 270 267 268
303 302 304 307 307 308 313 317 318 322 330 333 330 331 328 311 297 291 291 292 291 291 292 292 292 289 282 278 281 286 289 289 287 284 280 275 269 262 259 260 261 259 252 246 243 244 247 249 249 249 248 248 250 254 260 267 271 273 274 274 274 274 274 273 274 274 276 276 274 272 272 270 269 270
302 301 303 306 307 310 314 314 312 317 324 327 332 344 344 335 328 323 316 311 306 301 298 294 291 288 281 277 281 287 290 290 290 287 281 274 268 265 259 256 257 258 257 255 252 252 253 253 252 250 248 247 248 252 258 264 267 270 273 273 271 271 272 272 273 274 272 271 271 272 273 271 269 270
306 306 307 305 306 310 313 312 309 312 316 318 325 338 342 338 335 328 321 319 318 312 307 302 297 292 286 283 286 289 291 291 290 288 283 273 266 265 262 258 256 255 258 260 260 258 258 256 253 250 246 245 246 250 255 259 262 264 268 271 271 271 271 272 273 271 270 270 271 272 272 271 270 271
318 316 313 308 307 310 313 313 311 309 310 310 318 330 337 336 332 327 323 325 324 318 314 312 310 306 303 300 301 300 298 293 287 285 285 280 272 268 265 263 260 257 258 260 261 259 258 257 254 251 247 244 244 247 251 256 258 260 264 268 270 271 272 272 272 269 268 268 269 269 270 270 268 268
327 323 319 314 312 313 315 317 316 315 313 309 313 323 329 328 323 321 321 323 322 318 317 317 316 314 311 308 303 299 294 289 285 282 281 277 271 267 263 261 260 258 258 260 260 258 258 256 253 252 250 247 247 250 252 253 254 256 260 265 267 269 270 270 270 268 266 265 265 266 268 269 268 268
330 328 324 319 315 316 317 319 319 316 311 307 309 315 318 314 310 310 313 314 313 312 312 311 309 306 303 299 295 289 286 284 282 280 277 272 267 261 257 256 256 256 256 258 257 256 256 254 251 251 250 246 247 252 255 255 255 256 260 264 267 268 268 268 268 267 266 265 265 265 267 269 270 271
333 331 328 323 320 319 318 318 317 313 309 308 309 308 305 302 299 299 302 305 306 306 304 302 299 298 297 294 291 287 284 283 280 276 273 269 265 260 256 254 254 254 254 255 254 253 252 249 248 250 249 241 240 248 255 257 259 260 261 263 265 265 264 264 265 265 264 265 267 268 270 271 271 270
339 335 331 326 322 320 318 315 312 308 303 302 300 298 297 296 296 297 300 302 304 303 301 299 300 302 301 299 295 289 283 280 278 275 271 267 264 262 259 255 253 254 255 253 251 250 251 248 246 249 251 247 245 252 259 262 262 262 262 262 264 266 266 265 265 267 268 268 268 269 270 272 272 272
351 347 342 335 329 324 318 312 309 306 302 298 295 295 296 299 303 307 310 313 314 313 313 315 317 320 319 318 316 309 296 284 277 272 269 266 264 263 261 257 253 250 251 251 249 247 248 246 242 244 252 257 260 262 264 262 259 258 260 262 265 267 268 266 267 269 270 271 271 270 267 267 271 274
2 1 357 353 348 341 333 327 321 317 313 309 306 307 309 312 318 321 321 323 327 328 330 331 331 331 328 326 325 321 312 302 292 281 270 263 260 261 261 257 252 247 245 245 246 245 243 240 239 242 247 250 251 252 252 251 252 254 258 262 265 267 267 268 270 270 269 270 272 271 266 265 266 268
3 1 355 352 351 345 339 337 333 330 331 331 330 332 333 330 326 323 323 330 338 339 337 335 334 332 328 325 322 318 314 312 307 296 280 264 257 256 255 252 247 243 241 242 245 244 241 236 235 239 241 239 239 243 244 246 251 255 257 261 266 269 270 270 270 271 271 272 271 267 264 263 262 261
9 7 2 1 3 2 359 360 358 355 357 358 355 349 337 322 319 327 337 343 345 344 342 340 338 334 328 324 320 317 315 313 308 301 291 274 258 252 252 250 245 242 242 245 247 244 237 230 227 230 233 233 233 236 238 242 247 251 252 255 260 264 264 263 262 266 273 277 274 267 260 257 255 254
17 15 12 14 20 24 26 26 19 8 1 355 345 335 323 316 326 342 349 346 344 344 342 340 337 332 326 322 318 315 315 314 309 302 294 282 266 256 254 253 249 245 244 244 242 238 235 230 227 226 226 226 226 226 230 237 243 243 242 243 244 245 248 252 256 261 270 276 274 266 257 252 248 248
17 16 16 18 24 26 25 19 6 352 342 333 327 321 318 322 334 343 344 341 341 341 339 334 331 327 322 317 314 312 310 311 310 304 294 284 272 259 252 248 246 245 242 238 236 234 231 227 223 222 219 217 218 219 223 233 238 233 227 224 223 226 231 238 245 249 252 258 269 270 261 254 249 246